Location: Mason
(37.5237°N, 89.2543°W)
Time: 19:22:01
(UTC+00:00)

Cosmos 1151 Rocket - Pass Details

Date: 08 December 2021
Orbit: 592 x 616 km, 82.5° (Epoch: 16 January)

Event Time Altitude Azimuth Distance (km) Brightness Sun altitude
Rises 23:19:26 0° 184° (S) 2,842 6.8 -8.1°
Reaches altitude 10° 23:21:37 10° 183° (S) 1,947 6.0 -8.5°
Maximum altitude 23:25:56 83° 96° (E) 618 3.0 -9.3°
Drops below altitude 10° 23:30:19 10° 9° (N) 1,975 5.4 -10.1°
Sets 23:32:33 0° 8° (N) 2,887 6.2 -10.5°
